Starlink 5248

operational
NORAD ID: 54174 Int'l Des: 2022-141 Owner: SPXS Country: US Constellation: starlink
LEOCIRCULAR

Über Starlink 5248

Beschreibung wird geladen...

Live-Position

3D-Globus wird geladen...

Nächste Überflüge

Höhenverlauf

Altitude vs Time

uPlot chart will show altitude changes over time

Zweizeiliger Elementsatz

1 54174U 22141T 25305.58888053 .00000476 00000-0 48015-4 0 9990
2 54174 53.2157 163.9304 0001476 85.9368 274.1793 15.08838879167294
Epoch: 1. Nov. 2025 • Age: 20 hours

Aktueller Status

Höhe 544.8 km
Geschwindigkeit 7.60 km/s
Subsatellitenpunkt 50.85°N, 87.27°E
Startdatum 28. Okt. 2022
Alter 3 years
Typ internet

Technische Details

Klassifizierung Payload
Masse 305.00 kg
Trockenmasse 290.00 kg
Gesamtmasse 305.00 kg
Länge 0.20 m
Durchmesser 2.80 m
Spannweite 9.00 m
Form Box + pan
Hersteller SPXS
Bus-Typ Starlink
Phasenstatus In Orbit
Besitzer/Staat SPXS/US

Große Konstellationen

Loading constellations...